レモン-リード彗星

P/2018 C1 ( Lemmon-Read )

English version
Home page
Updated on September 22, 2018

---------------------------------------------------------------------

・ プロフィール

発見日 2018年2月4日、2月9日
発見光度 19.1等、19.1等
発見者 Mt. Lemmon Survey, Mike T. Read (Spacewatch, Kitt Peak)

・ 写真集

・ 軌道要素

Epoch 2018 Feb. 11.0 TT = JDT 2458160.5
T 2018 Feb. 25.54894 TT                                 MPCW
q   2.5957409            (2000.0)            P               Q
n   0.07486311     Peri.  234.32357     -0.81362048     -0.57447029
a   5.5755899      Node   270.44998     +0.55814793     -0.72869728
e   0.5344455      Incl.    5.13351     +0.16276548     -0.37280579
P  13.17
From 114 observations 2018 Jan. 16-May 25, mean residual 0".5.

・ 光度変化

        m1 = 9.5 + 5 logΔ + 20.0 log r

---------------------------------------------------------------------

軌道要素はM.P.E.C. 2018-K95に掲載されたものです。
光度グラフはComet for Windowsで作成したものです。

---------------------------------------------------------------------

Copyright(C) Seiichi Yoshida (comet@aerith.net). All rights reserved.